• In Portugal
  • List of Countries
  • For 7 days
  • Water Temperature
  • Satellite Maps
  • Weather Map
  • Weather Widgets
  • user-avatar
    Login

    Hourly Weather Timonova

    Today, 28 May, Monday

    Time Temperature Precipitation Wind Pressure Humidity
    00:00 +12°C° 0 mm 2 mps 748 mmHg 83%
    01:00 +12°C° 0 mm 2 mps 748 mmHg 85%
    02:00 +12°C° 0 mm 2 mps 748 mmHg 87%
    03:00 +12°C° 0 mm 2 mps 748 mmHg 87%
    04:00 +12°C° 0 mm 2 mps 748 mmHg 87%
    05:00 +13°C° 0 mm 2 mps 748 mmHg 88%
    06:00 +15°C° 0 mm 2 mps 749 mmHg 83%
    07:00 +17°C° 0 mm 3 mps 749 mmHg 79%
    08:00 +18°C° 0 mm 3 mps 749 mmHg 74%
    09:00 +19°C° 0 mm 3 mps 750 mmHg 70%
    10:00 +20°C° 0 mm 4 mps 750 mmHg 66%
    11:00 +21°C° 0 mm 4 mps 750 mmHg 62%
    12:00 +21°C° 0 mm 4 mps 750 mmHg 60%
    13:00 +21°C° 0 mm 4 mps 750 mmHg 57%
    14:00 +21°C° 0 mm 5 mps 750 mmHg 55%
    15:00 +21°C° 0 mm 4 mps 750 mmHg 57%
    16:00 +20°C° 0 mm 4 mps 750 mmHg 59%
    17:00 +19°C° 0 mm 4 mps 750 mmHg 62%
    18:00 +17°C° 0 mm 3 mps 751 mmHg 66%
    19:00 +14°C° 0 mm 3 mps 751 mmHg 70%
    20:00 +12°C° 0 mm 3 mps 751 mmHg 74%
    21:00 +11°C° 0 mm 3 mps 752 mmHg 74%
    22:00 +10°C° 0 mm 3 mps 752 mmHg 73%
    23:00 +9°C° 0 mm 3 mps 753 mmHg 73%

    Tomorrow, 29 May, Tuesday

    Time Temperature Precipitation Wind Pressure Humidity
    00:00 +9°C° 0 mm 2 mps 753 mmHg 72%
    01:00 +8°C° 0 mm 2 mps 753 mmHg 72%
    02:00 +7°C° 0 mm 2 mps 754 mmHg 71%
    03:00 +8°C° 0 mm 2 mps 754 mmHg 72%
    04:00 +8°C° 0 mm 2 mps 754 mmHg 73%
    05:00 +8°C° 0 mm 2 mps 754 mmHg 74%
    06:00 +10°C° 0 mm 2 mps 754 mmHg 69%
    07:00 +13°C° 0 mm 2 mps 753 mmHg 63%
    08:00 +15°C° 0 mm 2 mps 753 mmHg 58%
    09:00 +18°C° 0 mm 1 mps 753 mmHg 54%
    10:00 +19°C° 0 mm 1 mps 753 mmHg 50%
    11:00 +20°C° 0 mm 1 mps 753 mmHg 47%
    12:00 +21°C° 0 mm 1 mps 752 mmHg 46%
    13:00 +21°C° 0 mm 1 mps 752 mmHg 45%
    14:00 +22°C° 0 mm 1 mps 751 mmHg 44%
    15:00 +22°C° 0 mm 1 mps 750 mmHg 48%
    16:00 +20°C° 0 mm 2 mps 750 mmHg 52%
    17:00 +20°C° 0 mm 2 mps 749 mmHg 55%
    18:00 +18°C° 0 mm 2 mps 749 mmHg 62%
    19:00 +16°C° 0 mm 2 mps 748 mmHg 68%
    20:00 +14°C° 0 mm 2 mps 748 mmHg 74%
    21:00 +14°C° 0 mm 2 mps 748 mmHg 77%
    22:00 +12°C° 0 mm 3 mps 748 mmHg 79%
    23:00 +11°C° 0 mm 3 mps 748 mmHg 82%

    Day after tomorrow, 30 May, Wednesday

    Time Temperature Precipitation Wind Pressure Humidity
    00:00 +11°C° 0 mm 3 mps 747 mmHg 83%
    01:00 +10°C° 0 mm 3 mps 747 mmHg 85%
    02:00 +10°C° 0 mm 3 mps 747 mmHg 87%
    03:00 +11°C° 0 mm 3 mps 746 mmHg 86%
    04:00 +11°C° 0 mm 4 mps 746 mmHg 85%
    05:00 +12°C° 0 mm 4 mps 746 mmHg 84%
    06:00 +14°C° 0 mm 4 mps 745 mmHg 80%
    07:00 +15°C° 0 mm 4 mps 745 mmHg 76%
    08:00 +17°C° 0 mm 5 mps 744 mmHg 72%
    09:00 +20°C° 0 mm 5 mps 744 mmHg 69%
    10:00 +21°C° 0 mm 5 mps 743 mmHg 66%
    11:00 +23°C° 0 mm 6 mps 743 mmHg 63%
    12:00 +24°C° 0.1 mm 6 mps 742 mmHg 63%
    13:00 +24°C° 0.1 mm 6 mps 742 mmHg 63%
    14:00 +24°C° 0.1 mm 6 mps 741 mmHg 62%
    15:00 +24°C° 0.5 mm 6 mps 741 mmHg 68%
    16:00 +23°C° 0.5 mm 5 mps 740 mmHg 74%
    17:00 +22°C° 0.5 mm 5 mps 740 mmHg 80%
    18:00 +21°C° 0.2 mm 5 mps 740 mmHg 84%
    19:00 +20°C° 0.2 mm 4 mps 739 mmHg 88%
    20:00 +19°C° 0.2 mm 4 mps 739 mmHg 91%
    21:00 +18°C° 0 mm 4 mps 739 mmHg 93%
    22:00 +18°C° 0 mm 4 mps 738 mmHg 94%
    23:00 +17°C° 0 mm 3 mps 738 mmHg 95%

    31 May, Thursday

    Time Temperature Precipitation Wind Pressure Humidity
    00:00 +17°C° 0 mm 3 mps 738 mmHg 95%
    01:00 +17°C° 0 mm 3 mps 737 mmHg 95%
    02:00 +16°C° 0 mm 3 mps 737 mmHg 95%
    03:00 +16°C° 0 mm 3 mps 737 mmHg 95%
    04:00 +16°C° 0 mm 3 mps 737 mmHg 95%
    05:00 +16°C° 0 mm 3 mps 737 mmHg 95%
    06:00 +17°C° 0.2 mm 3 mps 737 mmHg 91%
    07:00 +17°C° 0.2 mm 4 mps 737 mmHg 86%
    08:00 +18°C° 0.2 mm 4 mps 737 mmHg 82%
    09:00 +17°C° 0.2 mm 5 mps 737 mmHg 77%
    10:00 +17°C° 0.2 mm 5 mps 737 mmHg 71%
    11:00 +19°C° 0.2 mm 6 mps 737 mmHg 66%
    12:00 +19°C° 0 mm 6 mps 738 mmHg 62%
    13:00 +19°C° 0 mm 5 mps 738 mmHg 59%
    14:00 +20°C° 0 mm 5 mps 738 mmHg 56%
    15:00 +19°C° 0 mm 5 mps 738 mmHg 58%
    16:00 +17°C° 0 mm 5 mps 738 mmHg 61%
    17:00 +18°C° 0 mm 4 mps 739 mmHg 63%
    18:00 +15°C° 0 mm 4 mps 739 mmHg 65%
    19:00 +14°C° 0 mm 4 mps 740 mmHg 66%
    20:00 +13°C° 0 mm 4 mps 740 mmHg 67%
    21:00 +12°C° 0 mm 4 mps 740 mmHg 65%
    22:00 +10°C° 0 mm 5 mps 741 mmHg 64%
    23:00 +9°C° 0 mm 5 mps 741 mmHg 62%

    1 June, Friday

    Time Temperature Precipitation Wind Pressure Humidity
    00:00 +8°C° 0 mm 4 mps 741 mmHg 62%
    01:00 +7°C° 0 mm 4 mps 742 mmHg 63%
    02:00 +6°C° 0 mm 4 mps 742 mmHg 63%
    03:00 +6°C° 0 mm 4 mps 742 mmHg 65%
    04:00 +6°C° 0 mm 4 mps 742 mmHg 68%
    05:00 +6°C° 0 mm 5 mps 743 mmHg 70%
    06:00 +7°C° 0 mm 5 mps 743 mmHg 67%
    07:00 +9°C° 0 mm 5 mps 743 mmHg 63%
    08:00 +10°C° 0 mm 6 mps 744 mmHg 59%
    09:00 +11°C° 0 mm 6 mps 744 mmHg 57%
    10:00 +13°C° 0 mm 6 mps 744 mmHg 55%
    11:00 +13°C° 0 mm 6 mps 744 mmHg 52%
    12:00 +14°C° 0 mm 6 mps 744 mmHg 52%
    13:00 +14°C° 0 mm 6 mps 744 mmHg 52%
    14:00 +14°C° 0 mm 6 mps 744 mmHg 52%
    15:00 +13°C° 0 mm 5 mps 744 mmHg 55%
    16:00 +13°C° 0 mm 5 mps 744 mmHg 59%
    17:00 +12°C° 0 mm 4 mps 744 mmHg 63%
    18:00 +11°C° 0 mm 4 mps 744 mmHg 63%
    19:00 +10°C° 0 mm 4 mps 745 mmHg 63%
    20:00 +10°C° 0 mm 4 mps 745 mmHg 64%
    21:00 +8°C° 0 mm 4 mps 746 mmHg 64%
    22:00 +7°C° 0 mm 4 mps 746 mmHg 64%
    23:00 +6°C° 0 mm 5 mps 746 mmHg 64%

    2 June, Saturday

    Time Temperature Precipitation Wind Pressure Humidity
    00:00 +6°C° 0 mm 5 mps 746 mmHg 66%
    01:00 +5°C° 0 mm 5 mps 746 mmHg 67%
    02:00 +4°C° 0 mm 4 mps 746 mmHg 68%
    03:00 +5°C° 0 mm 4 mps 747 mmHg 69%
    04:00 +5°C° 0 mm 4 mps 747 mmHg 71%
    05:00 +5°C° 0 mm 4 mps 747 mmHg 72%
    06:00 +6°C° 0 mm 5 mps 747 mmHg 67%
    07:00 +8°C° 0 mm 5 mps 747 mmHg 62%
    08:00 +10°C° 0 mm 6 mps 747 mmHg 57%
    09:00 +11°C° 0 mm 6 mps 747 mmHg 55%
    10:00 +13°C° 0 mm 6 mps 747 mmHg 54%
    11:00 +14°C° 0 mm 6 mps 747 mmHg 52%
    12:00 +14°C° 0 mm 6 mps 747 mmHg 52%
    13:00 +15°C° 0 mm 5 mps 747 mmHg 53%
    14:00 +15°C° 0 mm 5 mps 746 mmHg 53%
    15:00 +15°C° 0 mm 5 mps 746 mmHg 55%
    16:00 +15°C° 0 mm 5 mps 746 mmHg 58%
    17:00 +15°C° 0 mm 4 mps 746 mmHg 60%
    18:00 +13°C° 0 mm 4 mps 746 mmHg 66%
    19:00 +11°C° 0 mm 3 mps 746 mmHg 72%
    20:00 +9°C° 0 mm 2 mps 746 mmHg 78%
    21:00 +9°C° 0 mm 2 mps 747 mmHg 80%
    22:00 +8°C° 0 mm 2 mps 747 mmHg 81%
    23:00 +8°C° 0 mm 1 mps 747 mmHg 82%
    Show more